ATLAS 5 CENTAUR DEB, 44650

Orbit data source: Space-Track

ATLAS 5 CENTAUR DEB, 44650 is space debris in HEO originally from a launch on Wed, 17 Oct 2018 UTC launched from the Air Force Eastern Test Range (AFETR). Debris objects in space refer to the collection of defunct objects orbiting the Earth. Examples of debris include non-operational satellites, rocket bodies, and fragments generated from explosions, collisions, or faulty payload assembly.

Loading next visibility...
Identifier
44650, 2018-079L
Orbit
HEO
Country
Flag of USUS
Related business
Flag of USUnited Launch Alliance/Lockheed Martin (US)
Manufacturer
ULA Decatur
Mission
Spacecraft
Bus & Motor
Unknown
Mass
Unknown
Launch date (UTC)
2018-10-17 (8 years ago)
Launch vehicle
Unknown
Launch site
Air Force Eastern Test Range (AFETR)
Object type
Payload
Rocket body
Debris
Shape & HBR
Unknown shape, 1.1 m
Radar Cross Section
RCS unknown

Expand to show TLE details & history
Last TLE update: 18 hours ago

TLE from 18 hours ago
0 ATLAS 5 CENTAUR DEB
1 44650U 18079L   26126.15351452 -.00000131  00000-0  00000-0 0  9993
2 44650  13.0128  34.8115 4455378 325.8211  12.2881  1.90442114 49355
Epoch: 2026-05-06T03:41Z
TLE epoch observation values (Epoch: 2026-05-06T03:41:03.654Z)
Latitude
-0.00003°
Longitude
115.48384°
Altitude
9,718.246 km
Speed
5.919 km/s
True Right ascension
02h 19m 04s
True Declination
0° 00' 00"
Sunlit
Object was in daylight at epoch
Visualization orbit readout
Latitude
Unknown
Longitude
Unknown
Altitude
Unknown
Speed
Unknown
Apparent Right ascension
Unknown
Apparent Declination
Unknown
Sunlit
N/A
Visualization observer readout
Local Sidereal Time
05:34:49
Azimuth
Unknown
Elevation
Unknown
Doppler factor
Unknown
Orbital elements
Apogee altitude
33,367.441 km
Perigee altitude
8,866.999 km
Semi-major axis
27,495.357 km
Eccentricity
0.44554
Inclination
13.0128°
RAAN
34.8115°
Arg. of periapsis
325.8211°
True anomaly
34.46145°
Mean anomaly
12.2881°
Eccentric anomaly
21.7457°
Mean motion
0.47605 °/min
Orbital period
756.22 mins
BSTAR
0
Loading maneuver chart data...
Computing Atmospheric mass density...

Documentation

Showing up to 5 results
|